ZY 1

导读

ZY 1(资源一号02C星)是中国自主研制的国土资源普查业务卫星,于北京时间2011年12月22日成功发射。它继承了资源一号卫星的遥感技术传统,搭载了高分辨率全色相机与多光谱相机,空间分辨率可达2.36米,幅宽54千米。该卫星主要服务于土地资源监管、矿山开发监测、地质灾害防控等国土资源微观调查业务,为我国国土资源精细化管理提供了重要的遥感数据支撑,是我国资源卫星从试验型走向业务化的关键节点。

基本信息
目录编号:
38038
目录名称:
ZY 1
国际标识:
2011-079A
轨道中心:
EARTH
卫星名称:
ZY 1
卫星全名:
--
卫星状态:
在轨 (已飞行5332 天)
发射日期:
2011-12-22 UTC
国别 :
中国 (CN)
星等 :
--
轨道信息
数据来源 国际轨道数据 AOE轨道数据
星历时间 2026-07-28T12:44:25+0800
12小时前
查看轨道信息
2026-07-27T00:00:00+0800
2天前
查看轨道信息
半长轴 7142.444km 7142.443km
偏心率 0.0006523 0.0006354
轨道倾角 98.406° 98.406°
近地点辐角 173.684° 177.742°
升交点赤经 275.645° 274.147°
平近点角 279.212° 273.544°
近地点 759.647km 759.767km
远地点 768.967km 768.845km
周期 100.122分钟 100.122分钟
每日圈数 14.382439 14.382443
详细信息
使用方式:
暂无
2D轨道图
3D轨道图
轨道高度分析图
轨道倾角分析图
轨道综合分析图
查看轨道综合分析图